timestamp,wind_dir_avg,wind_spd_avg,wind_spd_max_dir,wind_spd_gust,battery_voltage,lat,long
2024-02-25 00:04:00+00:00,192.0,18.57,191.0,21.43,12.25,47.59359,-54.27349
2024-02-25 00:14:00+00:00,194.0,19.8,195.0,23.25,12.25,47.59359,-54.27349
2024-02-25 00:24:00+00:00,184.0,19.68,193.0,22.33,12.25,47.59359,-54.27349
2024-02-25 00:34:00+00:00,186.0,19.03,193.0,23.16,12.25,47.59359,-54.27349
2024-02-25 00:44:00+00:00,186.0,19.98,189.0,23.0,12.25,47.59359,-54.27349
2024-02-25 00:54:00+00:00,189.0,19.8,188.0,22.83,12.25,47.59359,-54.27349
2024-02-25 01:04:00+00:00,188.0,19.13,194.0,22.78,12.25,47.59359,-54.27349
2024-02-25 01:14:00+00:00,186.0,20.93,190.0,24.3,12.17,47.59359,-54.27349
2024-02-25 01:24:00+00:00,190.0,20.17,190.0,24.41,12.17,47.59359,-54.27349
2024-02-25 01:34:00+00:00,186.0,20.61,179.0,25.06,12.17,47.59359,-54.27349
2024-02-25 01:44:00+00:00,181.0,20.37,167.0,25.75,12.17,47.59359,-54.27349
2024-02-25 01:54:00+00:00,186.0,19.45,193.0,24.06,12.17,47.59359,-54.27349
2024-02-25 02:04:00+00:00,181.0,20.42,192.0,26.42,12.17,47.59359,-54.27349
2024-02-25 02:14:00+00:00,180.0,19.64,168.0,23.75,12.17,47.59359,-54.27349
2024-02-25 02:24:00+00:00,178.0,20.41,167.0,24.34,12.17,47.59359,-54.27349
2024-02-25 02:34:00+00:00,180.0,20.0,165.0,22.82,12.17,47.59359,-54.27349
2024-02-25 02:44:00+00:00,182.0,20.27,166.0,24.68,12.17,47.59359,-54.27349
2024-02-25 02:54:00+00:00,177.0,20.66,181.0,26.19,12.17,47.59359,-54.27349
2024-02-25 03:04:00+00:00,178.0,23.07,178.0,27.46,12.17,47.59359,-54.27349
2024-02-25 03:14:00+00:00,180.0,22.18,176.0,26.23,12.17,47.59359,-54.27349
2024-02-25 03:24:00+00:00,184.0,22.04,182.0,26.89,12.17,47.59359,-54.27349
2024-02-25 03:34:00+00:00,185.0,21.34,190.0,28.88,12.17,47.59359,-54.27349
2024-02-25 03:44:00+00:00,190.0,21.43,191.0,26.11,12.17,47.59359,-54.27349
2024-02-25 03:54:00+00:00,189.0,23.75,189.0,28.86,12.17,47.59359,-54.27349
2024-02-25 04:04:00+00:00,193.0,21.02,203.0,27.0,12.17,47.59359,-54.27349
2024-02-25 04:14:00+00:00,191.0,19.67,189.0,25.8,12.17,47.59359,-54.27349
2024-02-25 04:24:00+00:00,192.0,21.74,187.0,27.12,12.17,47.59359,-54.27349
2024-02-25 04:34:00+00:00,191.0,19.25,203.0,23.63,12.17,47.59359,-54.27349
2024-02-25 04:44:00+00:00,193.0,22.69,185.0,27.61,12.17,47.59359,-54.27349
2024-02-25 04:54:00+00:00,190.0,21.38,190.0,23.36,12.17,47.59359,-54.27349
2024-02-25 05:04:00+00:00,192.0,19.48,206.0,23.68,12.17,47.59359,-54.27349
2024-02-25 05:14:00+00:00,201.0,20.69,210.0,25.95,12.09,47.59359,-54.27349
2024-02-25 05:24:00+00:00,214.0,20.02,213.0,23.12,12.09,47.59359,-54.27349
2024-02-25 05:34:00+00:00,212.0,17.26,213.0,20.21,12.09,47.59359,-54.27349
2024-02-25 05:44:00+00:00,211.0,17.14,212.0,19.74,12.09,47.59359,-54.27349
2024-02-25 05:54:00+00:00,210.0,18.12,209.0,22.98,12.09,47.59359,-54.27349
2024-02-25 06:04:00+00:00,208.0,16.46,212.0,18.97,12.09,47.59359,-54.27349
2024-02-25 06:14:00+00:00,209.0,16.28,212.0,18.24,12.09,47.59359,-54.27349
2024-02-25 06:24:00+00:00,213.0,16.04,207.0,19.0,12.09,47.59359,-54.27349
2024-02-25 06:34:00+00:00,213.0,15.95,216.0,18.41,12.09,47.59359,-54.27349
2024-02-25 06:44:00+00:00,217.0,13.43,215.0,15.32,12.09,47.59359,-54.27349
2024-02-25 06:54:00+00:00,218.0,13.28,214.0,15.23,12.09,47.59359,-54.27349
2024-02-25 07:04:00+00:00,217.0,12.89,207.0,15.72,12.09,47.59359,-54.27349
2024-02-25 07:14:01+00:00,219.0,11.86,217.0,13.74,12.09,47.59359,-54.27349
2024-02-25 07:24:01+00:00,217.0,12.56,217.0,14.57,12.09,47.59359,-54.27349
2024-02-25 07:34:01+00:00,216.0,12.72,216.0,14.32,12.09,47.59359,-54.27349
2024-02-25 07:44:01+00:00,226.0,11.73,227.0,13.02,12.09,47.59359,-54.27349
2024-02-25 07:54:01+00:00,231.0,10.86,228.0,12.55,12.09,47.59359,-54.27349
2024-02-25 08:04:01+00:00,246.0,11.1,257.0,15.96,12.09,47.59359,-54.27349
2024-02-25 08:14:00+00:00,264.0,9.37,268.0,11.48,12.09,47.59359,-54.27349
2024-02-25 08:24:00+00:00,251.0,12.46,256.0,16.68,12.09,47.59359,-54.27349
2024-02-25 08:34:00+00:00,243.0,8.42,250.0,11.48,12.09,47.59359,-54.27349
2024-02-25 08:44:00+00:00,244.0,8.85,253.0,11.49,12.09,47.59359,-54.27349
2024-02-25 08:54:00+00:00,240.0,9.15,241.0,10.04,12.09,47.59359,-54.27349
2024-02-25 09:04:00+00:00,237.0,9.77,245.0,11.63,12.09,47.59359,-54.27349
2024-02-25 09:14:00+00:00,239.0,11.1,233.0,12.21,12.01,47.59359,-54.27349
2024-02-25 09:24:00+00:00,231.0,10.54,236.0,12.48,12.01,47.59359,-54.27349
2024-02-25 09:34:00+00:00,235.0,9.2,246.0,11.03,12.01,47.59359,-54.27349
2024-02-25 09:44:00+00:00,231.0,9.08,236.0,11.51,12.01,47.59359,-54.27349
2024-02-25 09:54:00+00:00,241.0,8.74,244.0,11.26,12.01,47.59359,-54.27349
2024-02-25 10:04:00+00:00,237.0,9.14,242.0,11.49,12.01,47.59359,-54.27349
2024-02-25 10:14:00+00:00,234.0,9.81,240.0,11.84,12.01,47.59359,-54.27349
2024-02-25 10:24:00+00:00,237.0,9.78,241.0,11.6,12.01,47.59359,-54.27349
2024-02-25 10:34:00+00:00,235.0,10.03,231.0,11.26,12.01,47.59359,-54.27349
2024-02-25 10:44:00+00:00,237.0,10.08,231.0,11.18,12.01,47.59359,-54.27349
2024-02-25 10:54:00+00:00,243.0,10.27,240.0,11.77,12.01,47.59359,-54.27349
2024-02-25 11:04:00+00:00,250.0,11.21,251.0,12.23,12.01,47.59359,-54.27349
2024-02-25 11:14:00+00:00,249.0,9.14,248.0,10.48,12.01,47.59359,-54.27349
2024-02-25 11:24:00+00:00,248.0,10.63,247.0,11.89,12.01,47.59359,-54.27349
2024-02-25 11:34:00+00:00,248.0,11.31,250.0,12.43,12.01,47.59359,-54.27349
2024-02-25 11:44:00+00:00,252.0,9.07,252.0,10.3,12.01,47.59359,-54.27349
2024-02-25 11:54:00+00:00,255.0,10.18,255.0,11.13,12.01,47.59359,-54.27349
2024-02-25 12:04:00+00:00,251.0,11.39,248.0,12.23,12.01,47.59359,-54.27349
2024-02-25 12:14:01+00:00,253.0,13.45,261.0,17.02,12.09,47.59359,-54.27349
2024-02-25 12:24:01+00:00,258.0,14.6,264.0,16.67,12.09,47.59359,-54.27349
2024-02-25 12:34:01+00:00,248.0,11.65,255.0,13.84,12.09,47.59359,-54.27349
2024-02-25 12:44:01+00:00,248.0,11.35,249.0,12.43,12.09,47.59359,-54.27349
2024-02-25 12:54:01+00:00,250.0,11.43,252.0,12.75,12.09,47.59359,-54.27349
2024-02-25 13:04:01+00:00,247.0,10.99,243.0,12.47,12.09,47.59359,-54.27349
2024-02-25 13:14:00+00:00,251.0,13.06,249.0,15.92,12.81,47.59359,-54.27349
2024-02-25 13:24:00+00:00,262.0,14.22,261.0,16.03,12.81,47.59359,-54.27349
2024-02-25 13:34:00+00:00,253.0,11.47,247.0,12.75,12.81,47.59359,-54.27349
2024-02-25 13:44:00+00:00,259.0,11.61,261.0,12.76,12.81,47.59359,-54.27349
2024-02-25 13:54:00+00:00,266.0,13.05,263.0,14.79,12.81,47.59359,-54.27349
2024-02-25 14:04:00+00:00,254.0,11.39,257.0,13.26,12.81,47.59359,-54.27349
2024-02-25 14:14:01+00:00,264.0,10.19,260.0,10.86,14.48,47.59359,-54.27349
2024-02-25 14:24:01+00:00,252.0,11.57,253.0,12.65,14.48,47.59359,-54.27349
2024-02-25 14:34:01+00:00,263.0,11.82,263.0,13.8,14.48,47.59359,-54.27349
2024-02-25 14:44:01+00:00,249.0,10.44,249.0,12.3,14.48,47.59359,-54.27349
2024-02-25 14:54:01+00:00,263.0,10.72,260.0,11.26,14.48,47.59359,-54.27349
2024-02-25 15:04:01+00:00,263.0,10.41,264.0,11.08,14.48,47.59359,-54.27349
2024-02-25 15:14:00+00:00,254.0,9.59,255.0,10.94,14.24,47.59359,-54.27349
2024-02-25 15:24:00+00:00,260.0,12.81,263.0,15.47,14.24,47.59359,-54.27349
2024-02-25 15:34:00+00:00,255.0,13.69,251.0,16.07,14.24,47.59359,-54.27349
2024-02-25 15:44:00+00:00,251.0,12.98,249.0,14.56,14.24,47.59359,-54.27349
2024-02-25 15:54:00+00:00,243.0,11.8,246.0,14.05,14.24,47.59359,-54.27349
2024-02-25 16:04:00+00:00,259.0,10.6,257.0,12.68,14.24,47.59359,-54.27349
2024-02-25 16:14:00+00:00,258.0,12.37,261.0,14.17,13.6,47.59359,-54.27349
2024-02-25 16:24:00+00:00,261.0,11.7,265.0,13.47,13.6,47.59359,-54.27349
2024-02-25 16:34:00+00:00,251.0,10.96,249.0,12.33,13.6,47.59359,-54.27349
2024-02-25 16:44:00+00:00,252.0,11.45,252.0,12.98,13.6,47.59359,-54.27349
2024-02-25 16:54:00+00:00,248.0,12.59,249.0,15.65,13.6,47.59359,-54.27349
2024-02-25 17:04:00+00:00,250.0,13.29,253.0,15.12,13.6,47.59359,-54.27349
2024-02-25 17:14:01+00:00,255.0,12.06,257.0,13.49,13.68,47.59359,-54.27349
2024-02-25 17:24:01+00:00,259.0,12.87,262.0,14.86,13.68,47.59359,-54.27349
2024-02-25 17:34:01+00:00,264.0,11.39,266.0,13.47,13.68,47.59359,-54.27349
2024-02-25 17:44:01+00:00,271.0,12.01,272.0,15.2,13.68,47.59359,-54.27349
2024-02-25 17:54:01+00:00,263.0,12.5,264.0,14.71,13.68,47.59359,-54.27349
2024-02-25 18:04:01+00:00,255.0,12.33,260.0,20.7,13.68,47.59359,-54.27349
2024-02-25 18:14:01+00:00,267.0,12.54,259.0,14.83,14.0,47.59359,-54.27349
2024-02-25 18:24:01+00:00,271.0,11.86,270.0,14.66,14.0,47.59359,-54.27349
2024-02-25 18:34:01+00:00,272.0,11.43,266.0,13.88,14.0,47.59359,-54.27349
2024-02-25 18:44:01+00:00,268.0,11.98,272.0,15.47,14.0,47.59359,-54.27349
2024-02-25 18:54:01+00:00,264.0,11.72,263.0,13.26,14.0,47.59359,-54.27349
2024-02-25 19:04:01+00:00,266.0,13.42,268.0,20.11,14.0,47.59359,-54.27349
2024-02-25 19:14:00+00:00,255.0,12.63,255.0,14.72,13.44,47.59359,-54.27349
2024-02-25 19:24:00+00:00,253.0,12.54,255.0,14.88,13.44,47.59359,-54.27349
2024-02-25 19:34:00+00:00,259.0,13.3,259.0,14.62,13.44,47.59359,-54.27349
2024-02-25 19:44:00+00:00,262.0,12.39,264.0,14.71,13.44,47.59359,-54.27349
2024-02-25 19:54:00+00:00,257.0,11.35,255.0,13.11,13.44,47.59359,-54.27349
2024-02-25 20:04:00+00:00,262.0,13.77,266.0,14.7,13.44,47.59359,-54.27349
2024-02-25 20:14:00+00:00,256.0,12.56,258.0,14.88,13.53,47.59359,-54.27349
2024-02-25 20:24:00+00:00,261.0,12.24,258.0,14.69,13.53,47.59359,-54.27349
2024-02-25 20:34:00+00:00,260.0,12.22,265.0,14.32,13.53,47.59359,-54.27349
2024-02-25 20:44:00+00:00,254.0,12.53,252.0,15.38,13.53,47.59359,-54.27349
2024-02-25 20:54:00+00:00,270.0,10.5,277.0,13.87,13.53,47.59359,-54.27349
2024-02-25 21:04:00+00:00,257.0,12.09,258.0,14.36,13.53,47.59359,-54.27349
2024-02-25 21:14:01+00:00,262.0,12.51,262.0,14.32,13.21,47.59359,-54.27349
2024-02-25 21:24:01+00:00,259.0,13.85,256.0,14.9,13.21,47.59359,-54.27349
2024-02-25 21:34:01+00:00,264.0,13.37,260.0,14.78,13.21,47.59359,-54.27349
2024-02-25 21:44:01+00:00,270.0,13.43,269.0,14.52,13.21,47.59359,-54.27349
2024-02-25 21:54:01+00:00,265.0,12.45,265.0,14.57,13.21,47.59359,-54.27349
2024-02-25 22:04:01+00:00,268.0,11.44,262.0,14.84,13.21,47.59359,-54.27349
2024-02-25 22:14:00+00:00,258.0,12.0,262.0,14.68,12.41,47.59359,-54.27349
2024-02-25 22:24:00+00:00,265.0,13.09,268.0,14.61,12.41,47.59359,-54.27349
2024-02-25 22:34:00+00:00,268.0,12.9,272.0,14.55,12.41,47.59359,-54.27349
2024-02-25 22:44:00+00:00,272.0,11.8,276.0,14.35,12.41,47.59359,-54.27349
2024-02-25 22:54:00+00:00,262.0,7.44,261.0,8.63,12.41,47.59359,-54.27349
2024-02-25 23:04:00+00:00,259.0,7.01,266.0,9.38,12.41,47.59359,-54.27349
2024-02-25 23:14:00+00:00,270.0,8.61,270.0,12.84,12.25,47.59359,-54.27349
2024-02-25 23:24:00+00:00,272.0,10.1,268.0,13.27,12.25,47.59359,-54.27349
2024-02-25 23:34:00+00:00,290.0,3.39,287.0,7.47,12.25,47.59359,-54.27349
2024-02-25 23:44:00+00:00,307.0,3.9,287.0,7.54,12.25,47.59359,-54.27349
2024-02-25 23:54:00+00:00,273.0,3.07,273.0,7.43,12.25,47.59359,-54.27349
